Meteo Giornale » Osservazioni meteo Turchia » Kars
ore: 21:50 - Osservazioni Meteo Kars
Lat. 40° 36' N Lon. 43° 5' E Alt. 1775 metri s.l.m.
13 °C
Nuvoloso
Temp. 24 Ore
11 °C
21 °C
Est/Nord-Est
9.3 Km/h
Dew point 9 °C
Umidità 76 %
Visibilità 10 Km
Il sole sorge alle ore 05:33
Il sole tramonta alle ore 18:42
| Data e Ora | Cielo e Fenomeni | T °C | DP °C | Um. % | Pres. hPa | Vis. km | Vento km/h | |
|---|---|---|---|---|---|---|---|---|
| Oggi h: 21:50 | Nuvoloso | 13 | 9 | 76 | 1021 | 10 | E/NE 9.3 | |
| Oggi h: 20:50 | Sereno | 14 | 10 | 76 | 1021 | 10 | E/NE 11.1 | |
| Oggi h: 19:50 | Nuvoloso | 14 | 11 | 82 | 1021 | 10 | NE 11.1 | |
| Oggi h: 18:50 | Nuvoloso | 16 | 10 | 67 | 1020 | 10 | NE 14.8 | |
| Oggi h: 17:50 | Nuvoloso | 17 | 10 | 63 | 1020 | 10 | E/NE 22.2 | |
| Oggi h: 16:50 | Molto Nuvoloso | 18 | 10 | 59 | 1019 | 10 | E/SE 27.8 | |
| Oggi h: 15:50 | Molto Nuvoloso | 19 | 10 | 55 | 1019 | 10 | E/NE 20.3 | |
| Oggi h: 14:50 | Molto Nuvoloso | 20 | 10 | 52 | 1019 | 10 | E/NE 25.9 | |
| Oggi h: 13:50 | Molto Nuvoloso | 21 | 9 | 46 | 1019 | 10 | N 13 | |
| Oggi h: 12:50 | Nuvoloso | 21 | 8 | 43 | 1019 | 10 | N/NE 14.8 | |
| Oggi h: 11:50 | Nuvoloso | 20 | 10 | 52 | 1019 | 10 | NE 14.8 | |
| Oggi h: 10:50 | Nuvoloso | 19 | 11 | 59 | 1020 | 10 | E 18.5 | |
| Oggi h: 09:50 | Nuvoloso | 17 | 9 | 59 | 1020 | 10 | E/NE 20.3 | |
| Oggi h: 08:50 | Molto Nuvoloso | 15 | 10 | 72 | 1020 | 10 | E/NE 20.3 | |
| Oggi h: 07:50 | Molto Nuvoloso | 13 | 10 | 81 | 1020 | 10 | N/NE 11.1 | |
| Oggi h: 06:50 | Molto Nuvoloso | 12 | 11 | 93 | 1020 | 10 | NE 9.3 | |
| Oggi h: 05:50 | Molto Nuvoloso | 11 | 11 | 100 | 1020 | 10 | N 3.7 | |
| Oggi h: 04:50 | Molto Nuvoloso | 11 | 11 | 100 | 1020 | 10 | S 9.3 | |
| Oggi h: 03:50 | Molto Nuvoloso | 11 | 11 | 100 | 1020 | 10 | NO 11.1 | |
| Oggi h: 02:50 | Molto Nuvoloso | 11 | 11 | 100 | 1019 | 10 | N 9.3 | |
| Oggi h: 01:50 | Temporale | 11 | 11 | 100 | 1019 | 10 | E/NE 20.3 | |
| Oggi h: 00:50 | Temporale | 11 | 10 | 93 | 1019 | 10 | NO 11.1 | |
| Ieri h: 23:50 | Molto Nuvoloso | 11 | 10 | 93 | 1019 | 10 | E 11.1 | |
| Ieri h: 22:50 | Molto Nuvoloso | 11 | 9 | 87 | 1020 | 10 | N 5.5 | |



